DW9727 Weather Reports


time (UTC)temp
F
wind
direction
speed
knots
gust
knots
rain 1hr
in
rain 24hr
in
rain mn
in
humidity
%
barometer
mb
20260505002710 62 9 12.2 18.2 0.00 0.00 0.00 40 1005.6
20260505001710 63 334 10.4 18.2 0.00 0.00 0.00 38 1005.6
20260505000710 64 13 8.7 18.2 0.00 0.00 0.00 37 1005.8
20260504235711 65 15 10.4 20.9 0.00 0.00 0.00 35 1005.8
20260504234711 67 5 11.3 22.6 0.00 0.00 0.00 33 1005.8
20260504233711 68 15 8.7 17.4 0.00 0.00 0.00 33 1005.4
20260504232710 69 357 11.3 18.2 0.00 0.00 0.00 31 1005.2
20260504231710 70 8 7.8 15.6 0.00 0.00 0.00 32 1004.9
20260504230710 71 296 8.7 13.9 0.00 0.00 0.00 32 1004.7
20260504225710 70 20 9.6 20.0 0.00 0.00 0.00 34 1004.5
20260504224710 70 317 10.4 17.4 0.00 0.00 0.00 31 1004.3
20260504223710 71 313 10.4 14.8 0.00 0.00 0.00 29 1004.2
20260504221710 71 300 8.7 20.0 0.00 0.00 0.00 30 1004.1
20260504220711 72 9 8.7 15.6 0.00 0.00 0.00 30 1003.9
20260504215710 72 333 7.8 18.2 0.00 0.00 0.00 33 1003.8
20260504214711 73 319 8.7 18.2 0.00 0.00 0.00 31 1003.6
20260504212711 74 10 10.4 17.4 0.00 0.00 0.00 32 1003.5
20260504211710 74 334 8.7 17.4 0.00 0.00 0.00 32 1003.6
20260504210710 73 327 11.3 18.2 0.00 0.00 0.00 32 1003.6
20260504205710 73 42 9.6 15.6 0.00 0.00 0.00 35 1003.3
20260504203711 74 28 10.4 15.6 0.00 0.00 0.00 31 1003.3
20260504202710 75 0 7.0 17.4 0.00 0.00 0.00 30 1003.3
20260504201711 75 14 7.0 17.4 0.00 0.00 0.00 32 1003.2
20260504200711 75 331 8.7 13.9 0.00 0.00 0.00 31 1003.1
20260504194711 74 12 8.7 14.8 0.00 0.00 0.00 32 1003.1
20260504193710 75 0 10.4 17.4 0.00 0.00 0.00 35 1003.1
20260504192710 75 5 7.8 17.4 0.00 0.00 0.00 31 1002.9
20260504191710 75 0 7.0 17.4 0.00 0.00 0.00 32 1003.0
20260504190710 75 334 10.4 17.4 0.00 0.00 0.00 36 1002.9
20260504185710 74 323 12.2 20.0 0.00 0.00 0.00 34 1002.8
20260504184711 75 5 6.1 15.6 0.00 0.00 0.00 34 1002.7
20260504182711 75 329 6.1 13.9 0.00 0.00 0.00 41 1002.4
20260504181711 75 10 6.1 20.0 0.00 0.00 0.00 42 1002.5
20260504175711 74 334 9.6 15.6 0.00 0.00 0.00 41 1002.6
20260504174711 75 0 8.7 14.8 0.00 0.00 0.00 43 1002.5
20260504173710 74 319 8.7 15.6 0.00 0.00 0.00 44 1002.5
20260504172710 75 26 7.8 15.6 0.00 0.00 0.00 42 1002.5
20260504171710 75 314 10.4 15.6 0.00 0.00 0.00 43 1002.4
20260504170710 75 5 7.0 14.8 0.00 0.00 0.00 41 1002.3
20260504150710 70 254 6.1 11.3 0.00 0.00 0.00 45 1001.6
20260504140711 62 263 6.1 10.4 0.00 0.00 0.00 54 1002.0
20260504130710 52 227 1.7 2.6 0.00 0.00 0.00 69 1002.2
20260504081710 50 202 0.0 0.9 0.00 0.00 0.00 70 1002.5
20260504050711 53 168 0.0 0.0 0.00 0.00 0.00 64 1005.4
20260504045710 54 168 0.0 0.9 0.00 0.00 0.00 61 1005.5
20260504044711 54 93 0.9 1.7 0.00 0.00 0.00 61 1005.6
20260504042711 55 82 0.0 0.0 0.00 0.00 0.00 61 1005.8
20260504041711 55 82 0.0 0.0 0.00 0.00 0.00 59 1006.0
20260504040710 56 82 0.0 0.0 0.00 0.00 0.00 57 1006.0
20260504035711 57 82 0.0 0.0 0.00 0.00 0.00 55 1005.9
20260504034711 58 82 0.0 0.9 0.00 0.00 0.00 54 1006.0
20260504033710 59 82 0.0 1.7 0.00 0.00 0.00 52 1006.0
20260504032710 60 81 0.9 1.7 0.00 0.00 0.00 51 1006.0
20260504031710 61 76 0.9 2.6 0.00 0.00 0.00 50 1006.1
20260504030711 61 65 1.7 2.6 0.00 0.00 0.00 50 1006.1
20260504025710 61 195 0.0 0.0 0.00 0.00 0.00 51 1006.3
20260504023710 62 195 0.0 1.7 0.00 0.00 0.00 48 1006.4
20260504022710 62 195 0.0 1.7 0.00 0.00 0.00 46 1006.4
20260504021711 63 195 0.0 0.0 0.00 0.00 0.00 45 1006.4
20260504020711 64 195 0.0 1.7 0.00 0.00 0.00 45 1006.3
20260504015710 65 195 0.9 1.7 0.00 0.00 0.00 43 1006.5
20260504014710 66 195 0.9 1.7 0.00 0.00 0.00 40 1006.5
20260504013710 67 195 0.9 1.7 0.00 0.00 0.00 38 1006.5
20260504012710 67 195 0.0 2.6 0.00 0.00 0.00 38 1006.7
20260504011710 69 202 0.9 2.6 0.00 0.00 0.00 36 1006.7
20260504010711 70 192 1.7 2.6 0.00 0.00 0.00 34 1006.9
20260504005711 71 229 1.7 5.2 0.00 0.00 0.00 34 1007.1
20260504004710 71 205 1.7 5.2 0.00 0.00 0.00 35 1007.1